Regional Weather Roundup
Issued by NWS

Home | Current Version | Previous Version | Text Only | Print | Product List | Glossary Off
Versions: 1 2 3 4 5 6 7 8 9 10 11 12 13 14 15 16 17 18 19 20 21 22 23 24 25 26 27 28 29 30 31 32 33 34 35 36 37 38 39 40 41 42 43 44 45 46 47 48 49 50

000
ASUS43 KDTX 190501
RWRMI
MICHIGAN HOURLY REGIONAL WEATHER ROUNDUP
NATIONAL WEATHER SERVICE DETROIT/PONTIAC MI
100 AM EDT SAT AUG 19 2017

NOTE: "FAIR" INDICATES FEW OR NO CLOUDS BELOW 12,000 FEET WITH NO
SIGNIFICANT WEATHER AND/OR OBSTRUCTION TO VISIBILITY.

MIZ047>049-052>055-059>063-066>070-074>076-081>083-190600-
SOUTHEAST LOWER MICHIGAN

CITY           SKY/WX    TMP DP  RH WIND       PRES   REMARKS
ADRIAN         CLOUDY    65  62  90 CALM      29.91R
ALMA           FAIR      61  59  92 SW3       29.86F
ANN ARBOR      MOCLDY    62  60  93 SW3       29.88S
BAD AXE        FAIR      63  58  86 W3        29.85R
CARO           FAIR      60  58  93 SW3       29.85S
DETROIT CITY   FAIR      68  59  73 W6        29.88R
DETROIT        MOCLDY    67  61  81 SW5       29.90R
FLINT          FAIR      63  59  87 SW5       29.87R
GROSSE ILE     MOCLDY    67  60  78 CALM      29.88S
HILLSDALE      CLOUDY    61  59  94 CALM      29.90F
HOWELL         FAIR      62  59  91 SW3       29.88S

CITY           SKY/WX    TMP DP  RH WIND       PRES   REMARKS
JACKSON        FAIR      64  59  83 CALM      29.89S
LAMBERTVILLE   MOCLDY    64  62  94 CALM      29.90S
LANSING        FAIR      64  59  83 W6        29.88S
LAPEER         MOCLDY    65  59  81 W3        29.87R
MASON          FAIR      61  58  91 CALM      29.89S
MONROE         MOCLDY    64  62  93 CALM      29.89R
MT. CLEMENS    CLOUDY    69  59  70 W6        29.86R
PONTIAC        FAIR      65  60  84 SW6       29.87R
PORT HOPE        N/A     66  59  78 W7        29.81S
PORT HURON     CLOUDY    68  61  77 CALM      29.87R
TRI CITIES     FAIR      63  62  97 SW8       29.86R
MIDLAND        CLOUDY    63  61  94 SW3       29.84S
TROY           FAIR      67  59  74 SW3       29.90R
SAGINAW HB     FAIR      63  61  94 SW7       29.85S
$$
MIZ043>046-050>051-056>058-064>065-071>073-077>080-190600-
SOUTHWEST LOWER MICHIGAN

CITY           SKY/WX    TMP DP  RH WIND       PRES   REMARKS
BATTLE CREEK   CLOUDY    64  61  90 S3        29.90S
BENTON HARBOR  MOCLDY    64  61  90 CALM      29.88S
BIG RAPIDS     MOCLDY    62  58  90 N6        29.86R
COLDWATER      MOCLDY    64  64 100 CALM      29.89F
FREMONT        FAIR      62  62 100 SW5       29.86S
HOLLAND        MOCLDY    63  60  90 CALM      29.88S
GRAND RAPIDS   MOCLDY    64  62  93 SW3       29.87S
IONIA          FAIR      60  59  96 CALM      29.87S
KALAMAZOO      CLOUDY    66  61  84 CALM      29.89S
LUDINGTON      CLOUDY    62  58  89 N3        29.86S
MARSHALL       CLOUDY    62  62  98 CALM      29.89S
MOUNT PLEASANT FAIR      64  61  88 SW3       29.84S
MUSKEGON       LGT RAIN  67  63  87 SW7       29.87R
SOUTH HAVEN    MOCLDY    65  63  93 CALM      29.88S
$$
MIZ016>042-190600-
NORTHERN LOWER MICHIGAN

CITY           SKY/WX    TMP DP  RH WIND       PRES   REMARKS
ALPENA         CLOUDY    62  58  86 VRB5      29.79S
BEAVER ISLAND  CLOUDY    64  58  81 W7        29.83R
BELLAIRE       HVY RAIN  61  58  90 CALM      29.83R
CADILLAC       MOCLDY    61  58  90 W3        29.86S
CHARLEVOIX     CLOUDY    63  60  88 W12       29.85S
FRANKFORT      CLOUDY    61  61  99 CALM      29.86R
GAYLORD        CLOUDY    58  56  93 W8        29.82S
GRAYLING       MOCLDY    58  56  93 W6        29.85R
HARBOR SPRINGS CLOUDY    62  59  91 W8        29.81S
HOUGHTON LAKE  MOCLDY    62  58  86 W9        29.85R
MANISTEE       MOCLDY    62  61  96 CALM      29.86R
OSCODA         CLOUDY    64  57  80 W6        29.81S
PELLSTON       CLOUDY    62  58  86 W8        29.80S
ROGERS CITY    CLOUDY    62  57  84 W8        29.78S
TRAVERSE CITY  CLOUDY    62  58  86 W5        29.84R
$$
MIZ007>008-015-190600-
EASTERN UPPER MICHIGAN

CITY           SKY/WX    TMP DP  RH WIND       PRES   REMARKS
KINROSS        CLOUDY    59  58  96 W8        29.78R
MACKINAC ISLAN CLOUDY    61  60  98 W9        29.78R
NEWBERRY       CLOUDY    58  57  97 W5        29.80R
S. S. MARIE    CLOUDY    61  59  93 W7        29.75R
MUNISING         N/A     62  61  96 NW10      29.82R
$$
MIZ004>006-011>014-085-190600-
CENTRAL UPPER MICHIGAN

CITY           SKY/WX    TMP DP  RH WIND       PRES   REMARKS
MANISTIQUE     CLOUDY    60  55  82 W5        29.83R
ESCANABA       FAIR      60  57  89 W5        29.85R
MENOMINEE      FAIR      61  57  87 CALM      29.87R
SAWYER-GWINN   FAIR      57  55  92 W3        29.86R
$$
MIZ001>003-009>011-084-190600-
WESTERN UPPER MICHIGAN

CITY           SKY/WX    TMP DP  RH WIND       PRES   REMARKS
IRON MOUNTAIN  FAIR      57  53  86 CALM      29.86R
HOUGHTON         N/A    N/A N/A N/A MISG      29.82F
COPPER HARBOR    N/A     63  56  78 VRB6      29.80F
IRONWOOD       FAIR      59  58  96 SW3       29.87S
$$

ABBREVIATIONS USED IN REMARKS
   TC - TEMPERATURE IN CELSIUS
  WCI - WIND CHILL INDEX
   HX - HEAT INDEX
  VSB - VISIBILITY




USA.gov is the U.S. government's official web portal to all federal, state and local government web resources and services.